Skip Page Navigation
NASA JPL Caltech
NASA Logo - Jet Propulsion Laboratory + View the NASA Portal
+ Near-Earth Object (NEO) Program
Search JPL
JPL Home Earth Solar System Stars & Galaxies Technology
JPL Solar System Dynamics
BODIES ORBITS EPHEMERIDES TOOLS PHYSICAL DATA DISCOVERY FAQ SITE MAP
JPL Small-Body Database Browser
Search: [ help ]  
8248 Gurzuf (1979 TV2)
Classification: Main-belt Asteroid          SPK-ID: 2008248
Ephemeris | Orbit Diagram | Orbital Elements | Physical Parameters | Discovery Circumstances | Close-Approach Data ]

[ show orbit diagram ]
Orbital Elements at Epoch 2457000.5 (2014-Dec-09.0) TDB
Reference: JPL 10 (heliocentric ecliptic J2000)
 Element Value Uncertainty (1-sigma)   Units 
e .1419052312710678 5.4283e-08  
a 2.310426210852024 1.1034e-08 AU
q 1.982564645066331 1.2704e-07 AU
i 2.230168130664639 6.0128e-06 deg
node 194.5426670624781 0.00011197 deg
peri 195.6560310928953 0.00011359 deg
M 2.250357442935604 1.7189e-05 deg
tp 2456992.481639341759
(2014-Nov-30.98163934)
6.1249e-05 JED
period 1282.733925682983
3.51
9.1891e-06
2.516e-08
d
yr
n .2806505642300842 2.0105e-09 deg/d
Q 2.638287776637717 1.26e-08 AU
  Orbit Determination Parameters
   # obs. used (total)      1000  
   data-arc span      20437 days (55.95 yr)  
   first obs. used      1958-11-11  
   last obs. used      2014-10-25  
   planetary ephem.      DE431  
   SB-pert. ephem.      SB431-BIG16  
   condition code      0  
   fit RMS      .48994  
   data source      ORB  
   producer      Otto Matic  
   solution date      2014-Nov-10 13:06:41  

Additional Information
 Earth MOID = .987641 AU 
 T_jup = 3.570 
[ show covariance matrix ]

Ephemeris | Orbit Diagram | Orbital Elements | Physical Parameters | Discovery Circumstances | Close-Approach Data ]

Physical Parameter Table
Parameter Symbol Value Units Sigma Reference Notes
absolute magnitude H 14.5 mag n/a MPO309216  

8248 Gurzuf           Discovered 1979 Oct. 14 by N. S. Chernykh at the Crimean Astrophysical Observatory.
Gurzuf is small town near Yalta at the south coast of the Crimea, praised by A. S. Pushkin, who visited it in 1820.
NOTE: some special characters may not display properly (any characters within {} are an attempt to place the proper accent above a character)
Reference: 20000124/MPCPages.arcLast Updated: 2013-03-29

[ show close-approach data ]
Alternate Designations
 1979 TV2 = 1958 VL = 1979 WX1 = 1993 TB1 
Ephemeris | Orbit Diagram | Orbital Elements | Physical Parameters | Discovery Circumstances | Close-Approach Data ]
ABOUT SSD CREDITS/AWARDS PRIVACY/COPYRIGHT GLOSSARY LINKS
FirstGov 2014-Nov-24 03:49 UT
(server date/time)  
NASA Home Page
Site Manager:   Donald K. Yeomans
Webmaster  Alan B. Chamberlin